STARLINK-1944, 46796

Orbit data source: Space-Track

STARLINK-1944, 46796 is a payload satellite owned by SpaceX/Seattle (US) in LEO that was launched on Sat, 24 Oct 2020 UTC via an FALCON 9 launch vehicle from the Air Force Eastern Test Range (AFETR). Payloads include a variety of satellites, spacecraft, and rockets equipped with specific instruments for various scientific and technological missions. These include communications satellites like Starlink; space stations such as the ISS; scientific satellites like the Hubble; Earth observation satellites from companies like Planet Labs, Umbra, and HawkEye 360; GPS; miniature CubeSats for education and research; and military/defense satellites.

Loading next visibility...
STARLINK-1944 details
Identifier
46796, 2020-074BK
Orbit
LEO
Last TLE update7 hours ago
Origin
Flag of USSpaceX/Seattle (US)
ManufacturerSpaceX/Seattle
MissionOperational Commercial Communications
Bus & MotorSTARLINK, Unknown motor
Mass260 kg wet, ~248 kg dry
Launch date (UTC)
2020-10-24 (4 years ago)
Launch vehicle
FALCON 9
Launch site
Air Force Eastern Test Range (AFETR)
Object type
Payload
Rocket body
Debris
Shape & HBRBox + 1 Pan, 8.86 m
Radar Cross Section13.562 m², Large (>1 m²)

Expand to show TLE details & history

TLE from 7 hours ago
0 STARLINK-1944
1 46796U 20074BK  24339.84486755  .00013447  00000-0  91934-3 0  9991
2 46796  53.0519 215.9380 0001543  98.7629 261.3535 15.06422654227189
Epoch: 2024-12-04T20:16Z
Definitive object data (Epoch: 2024-12-04T20:16:36.556Z)
Latitude0.00001°
Longitude-162.34849°
Altitude548.182 km
Speed7.589 km/s
True Right ascension14h 23m 45s
True Declination0° 00' 00"
Sunlit
Object was in daylight at TLE epoch
Visualization TLE readout
Latitude10.53844°
Longitude8.32284°
Altitude546.826 km
Speed7.591 km/s
Apparent Right ascension02h 50m 42s
Apparent Declination-54° 17' 33"
Sunlit
Object is in full shadow
Visualization observer readout
Local Sidereal Time01:20:12
Azimuth166.948° S
Elevation-6.191°
Doppler factor1
Orbital elements
Apogee altitude548.482 km
Perigee altitude546.345 km
Semi-major axis6,925.55 km
Eccentricity0.0001543
Inclination53.0519°
RAAN215.938°
Arg. of periapsis98.7629°
True anomaly261.33602°
Mean anomaly261.3535°
Eccentric anomaly261.34476°
Mean motion3.76584 °/min
BSTAR0.00091934
Orbital period95.6 mins
Loading maneuver chart data...

STARLINK-1944 Visibility forecast

Observer location: undefined°, undefined

Span
Click to sort rows by Start time (UTC) header in descending order
Start Az.
Max El. time (UTC)
Max El. Az.
Max El.
End time (UTC)
End Az.
6 mins2024-12-05 18:45:58.637Z234.511° WSW2024-12-05 18:48:58.637Z29.642° NE42.596°2024-12-05 18:51:58.637Z48.146° ENE
4 mins2024-12-05 20:26:58.637Z310.152° NW2024-12-05 20:28:58.637Z348.99° N18.619°2024-12-05 20:30:58.637Z21.691° NNE
5 mins2024-12-05 23:47:58.637Z342.714° N2024-12-05 23:49:58.637Z19.956° NNE20.544°2024-12-05 23:52:58.637Z71.576° E
7 mins2024-12-06 01:26:58.637Z307.81° NW2024-12-06 01:29:58.637Z238.499° WSW44.771°2024-12-06 01:33:58.637Z133.869° SE
|